Starlink 32541

operational
NORAD ID: 61916 Int'l Des: 2024-207 Owner: SPXS Country: US Constellation: starlink
LEOCIRCULAR

About Starlink 32541

Description loading...

Live Position

Loading 3D Globe...

Upcoming Passes

Altitude History

Altitude vs Time

uPlot chart will show altitude changes over time

Two-Line Element Set

1 61916U 24207E 26061.13540875 .00020323 00000-0 74866-3 0 9990
2 61916 43.0020 328.1319 0002392 262.4122 97.6458 15.27462556 73525
Epoch: Mar 2, 2026 • Age: 25 hours

Current Status

Altitude 492.0 km
Velocity 7.62 km/s
Sub-Earth Point -35.24°S, 98.75°E
Launch Date Nov 11, 2024
Age 1.3 years
Type internet

Technical Details

Classification Payload
Mass 730.00 kg
Dry Mass 700.00 kg
Total Mass 730.00 kg
Length 0.30 m
Diameter 4.10 m
Span 29.00 m
Shape Box + pan
Manufacturer SPXS
Bus Type Starlink V2M
Phase Status In Orbit
Owner/State SPXS/US

Large Constellations

Loading constellations...